| time (UTC) | temp F | wind direction | speed knots | gust knots | rain 1hr in | rain 24hr in | rain mn in | humidity % | barometer mb |
| 20260508185503 | 59 | 0 | 0.0 | 0.0 | 0.00 | 0.41 | 0.41 | 78 | 1013.9 |
| 20260508185003 | 59 | 0 | 0.0 | 0.0 | 0.00 | 0.41 | 0.41 | 78 | 1013.9 |
| 20260508184504 | 59 | 0 | 0.0 | 0.0 | 0.00 | 0.41 | 0.41 | 79 | 1013.9 |
| 20260508184024 | 60 | 0 | 0.0 | 0.0 | 0.00 | 0.41 | 0.41 | 79 | 1013.9 |
| 20260508183503 | 60 | 0 | 0.0 | 0.0 | 0.00 | 0.41 | 0.41 | 78 | 1013.7 |
| 20260508183024 | 60 | 0 | 0.0 | 0.0 | 0.00 | 0.41 | 0.41 | 77 | 1013.7 |
| 20260508182503 | 61 | 0 | 0.0 | 0.0 | 0.00 | 0.41 | 0.41 | 76 | 1013.7 |
| 20260508182003 | 61 | 0 | 0.0 | 0.0 | 0.00 | 0.41 | 0.41 | 76 | 1013.7 |
| 20260508181503 | 62 | 0 | 0.0 | 0.0 | 0.00 | 0.41 | 0.41 | 76 | 1013.6 |
| 20260508181003 | 62 | 0 | 0.0 | 0.0 | 0.00 | 0.41 | 0.41 | 76 | 1013.8 |
| 20260508180503 | 62 | 0 | 0.0 | 0.0 | 0.00 | 0.41 | 0.41 | 76 | 1013.7 |
| 20260508180003 | 62 | 360 | 0.0 | 0.9 | 0.00 | 0.41 | 0.41 | 76 | 1013.9 |
| 20260508175503 | 62 | 360 | 0.0 | 0.9 | 0.00 | 0.41 | 0.41 | 77 | 1013.8 |
| 20260508175003 | 61 | 360 | 0.0 | 0.9 | 0.00 | 0.41 | 0.41 | 77 | 1013.6 |
| 20260508174503 | 61 | 0 | 0.0 | 0.0 | 0.00 | 0.41 | 0.41 | 77 | 1013.7 |
| 20260508174003 | 62 | 0 | 0.0 | 0.0 | 0.00 | 0.41 | 0.41 | 77 | 1013.8 |
| 20260508173503 | 62 | 0 | 0.0 | 0.0 | 0.00 | 0.41 | 0.41 | 76 | 1013.6 |
| 20260508173003 | 61 | 0 | 0.0 | 0.0 | 0.00 | 0.41 | 0.41 | 77 | 1013.7 |
| 20260508172503 | 61 | 0 | 0.0 | 0.0 | 0.00 | 0.41 | 0.41 | 77 | 1013.8 |
| 20260508172003 | 61 | 0 | 0.0 | 0.0 | 0.00 | 0.41 | 0.41 | 77 | 1013.7 |
| 20260508171503 | 61 | 0 | 0.0 | 0.0 | 0.00 | 0.41 | 0.41 | 77 | 1013.6 |
| 20260508171003 | 61 | 0 | 0.0 | 0.0 | 0.00 | 0.41 | 0.41 | 78 | 1013.6 |
| 20260508170503 | 61 | 0 | 0.0 | 0.0 | 0.00 | 0.41 | 0.41 | 78 | 1013.7 |
| 20260508170003 | 61 | 0 | 0.0 | 0.0 | 0.00 | 0.41 | 0.41 | 78 | 1013.6 |
| 20260508165524 | 62 | 0 | 0.0 | 0.0 | 0.00 | 0.41 | 0.41 | 78 | 1013.7 |
| 20260508165024 | 62 | 0 | 0.0 | 0.0 | 0.00 | 0.41 | 0.41 | 77 | 1013.5 |
| 20260508164524 | 62 | 0 | 0.0 | 0.0 | 0.00 | 0.41 | 0.41 | 77 | 1013.6 |
| 20260508164024 | 62 | 0 | 0.0 | 0.0 | 0.00 | 0.41 | 0.41 | 77 | 1013.8 |
| 20260508163503 | 62 | 0 | 0.0 | 0.0 | 0.00 | 0.41 | 0.41 | 77 | 1013.6 |
| 20260508163003 | 62 | 0 | 0.0 | 0.0 | 0.00 | 0.41 | 0.41 | 77 | 1013.6 |
| 20260508162503 | 62 | 0 | 0.0 | 0.0 | 0.00 | 0.41 | 0.41 | 77 | 1013.5 |
| 20260508162024 | 61 | 0 | 0.0 | 0.0 | 0.00 | 0.41 | 0.41 | 78 | 1013.4 |
| 20260508161503 | 61 | 67 | 0.0 | 0.9 | 0.00 | 0.41 | 0.41 | 79 | 1013.6 |
| 20260508161024 | 60 | 67 | 0.0 | 0.9 | 0.01 | 0.41 | 0.41 | 80 | 1013.6 |
| 20260508160503 | 60 | 0 | 0.0 | 0.0 | 0.01 | 0.41 | 0.41 | 80 | 1013.6 |
| 20260508160024 | 60 | 9 | 0.0 | 1.7 | 0.02 | 0.41 | 0.41 | 80 | 1013.6 |
| 20260508155524 | 60 | 11 | 0.9 | 1.7 | 0.04 | 0.41 | 0.41 | 80 | 1013.5 |
| 20260508155024 | 59 | 13 | 0.0 | 1.7 | 0.05 | 0.41 | 0.41 | 80 | 1013.5 |
| 20260508154524 | 59 | 341 | 0.9 | 1.7 | 0.06 | 0.41 | 0.41 | 79 | 1013.8 |
| 20260508154003 | 58 | 359 | 1.7 | 3.5 | 0.07 | 0.41 | 0.41 | 79 | 1013.6 |
| 20260508153503 | 58 | 1 | 2.6 | 3.5 | 0.07 | 0.41 | 0.41 | 78 | 1013.8 |
| 20260508153003 | 58 | 7 | 2.6 | 3.5 | 0.08 | 0.41 | 0.41 | 78 | 1013.9 |
| 20260508152503 | 58 | 25 | 3.5 | 4.3 | 0.09 | 0.41 | 0.41 | 78 | 1013.9 |
| 20260508152024 | 57 | 33 | 3.5 | 4.3 | 0.09 | 0.41 | 0.41 | 77 | 1014.1 |
| 20260508151503 | 57 | 45 | 3.5 | 5.2 | 0.11 | 0.41 | 0.41 | 77 | 1014.1 |
| 20260508151003 | 57 | 32 | 2.6 | 5.2 | 0.12 | 0.40 | 0.40 | 76 | 1014.2 |
| 20260508150503 | 56 | 19 | 4.3 | 7.0 | 0.13 | 0.40 | 0.40 | 76 | 1014.0 |
| 20260508150003 | 56 | 10 | 4.3 | 7.0 | 0.18 | 0.39 | 0.39 | 76 | 1013.9 |
| 20260508145503 | 56 | 355 | 3.5 | 5.2 | 0.31 | 0.38 | 0.38 | 76 | 1014.0 |
| 20260508145024 | 56 | 355 | 2.6 | 3.5 | 0.32 | 0.37 | 0.37 | 76 | 1014.0 |
| 20260508144503 | 56 | 359 | 1.7 | 3.5 | 0.32 | 0.35 | 0.35 | 76 | 1014.0 |
| 20260508144003 | 56 | 330 | 0.9 | 3.5 | 0.31 | 0.34 | 0.34 | 76 | 1013.9 |
| 20260508143503 | 56 | 331 | 1.7 | 3.5 | 0.32 | 0.34 | 0.34 | 75 | 1014.0 |
| 20260508143003 | 56 | 344 | 0.9 | 3.5 | 0.31 | 0.33 | 0.33 | 75 | 1014.0 |
| 20260508142524 | 56 | 341 | 0.9 | 3.5 | 0.32 | 0.32 | 0.32 | 74 | 1014.1 |
| 20260508142003 | 57 | 340 | 1.7 | 3.5 | 0.32 | 0.32 | 0.32 | 74 | 1014.2 |
| 20260508141503 | 57 | 330 | 3.5 | 4.3 | 0.31 | 0.31 | 0.31 | 73 | 1014.1 |
| 20260508141003 | 58 | 320 | 3.5 | 6.1 | 0.28 | 0.28 | 0.28 | 72 | 1014.4 |
| 20260508140503 | 58 | 321 | 6.1 | 9.6 | 0.27 | 0.27 | 0.27 | 71 | 1014.3 |
| 20260508140003 | 59 | 323 | 4.3 | 9.6 | 0.21 | 0.21 | 0.21 | 70 | 1014.4 |
| 20260508135503 | 61 | 328 | 1.7 | 4.3 | 0.07 | 0.07 | 0.07 | 70 | 1014.3 |
| 20260508135003 | 61 | 344 | 2.6 | 7.8 | 0.05 | 0.05 | 0.05 | 69 | 1014.2 |
| 20260508134503 | 62 | 346 | 1.7 | 7.8 | 0.04 | 0.04 | 0.04 | 68 | 1013.9 |
| 20260508134003 | 64 | 325 | 0.9 | 2.6 | 0.04 | 0.04 | 0.04 | 62 | 1013.9 |
| 20260508133503 | 64 | 317 | 0.9 | 2.6 | 0.02 | 0.02 | 0.02 | 61 | 1014.0 |
| 20260508133003 | 65 | 329 | 0.9 | 1.7 | 0.02 | 0.02 | 0.02 | 60 | 1013.9 |
| 20260508132503 | 65 | 298 | 1.7 | 6.1 | 0.00 | 0.00 | 0.00 | 59 | 1014.0 |
| 20260508132003 | 66 | 274 | 3.5 | 6.1 | 0.00 | 0.00 | 0.00 | 57 | 1014.2 |
| 20260508131503 | 66 | 263 | 1.7 | 6.1 | 0.00 | 0.00 | 0.00 | 56 | 1014.1 |
| 20260508131003 | 67 | 117 | 0.9 | 4.3 | 0.00 | 0.00 | 0.00 | 56 | 1014.0 |
| 20260508130503 | 67 | 233 | 3.5 | 6.1 | 0.00 | 0.00 | 0.00 | 55 | 1014.1 |
| 20260508130003 | 67 | 252 | 5.2 | 7.0 | 0.00 | 0.00 | 0.00 | 55 | 1014.2 |
| 20260508125524 | 67 | 253 | 4.3 | 7.0 | 0.00 | 0.00 | 0.00 | 54 | 1014.2 |
| 20260508125003 | 67 | 225 | 1.7 | 7.0 | 0.00 | 0.00 | 0.00 | 54 | 1014.2 |
| 20260508124524 | 67 | 193 | 2.6 | 4.3 | 0.00 | 0.00 | 0.00 | 54 | 1014.0 |
| 20260508124024 | 67 | 160 | 2.6 | 4.3 | 0.00 | 0.00 | 0.00 | 54 | 1014.0 |
| 20260508123503 | 68 | 8 | 2.6 | 4.3 | 0.00 | 0.00 | 0.00 | 54 | 1014.2 |
| 20260508123003 | 68 | 244 | 3.5 | 7.0 | 0.00 | 0.00 | 0.00 | 55 | 1014.1 |
| 20260508122503 | 68 | 211 | 4.3 | 7.0 | 0.00 | 0.00 | 0.00 | 55 | 1014.0 |
| 20260508122003 | 68 | 192 | 2.6 | 6.1 | 0.00 | 0.00 | 0.00 | 56 | 1014.0 |
| 20260508121503 | 67 | 217 | 2.6 | 4.3 | 0.00 | 0.00 | 0.00 | 57 | 1014.2 |
| 20260508121003 | 67 | 229 | 3.5 | 5.2 | 0.00 | 0.00 | 0.00 | 56 | 1014.1 |
| 20260508120503 | 67 | 184 | 4.3 | 6.1 | 0.00 | 0.00 | 0.00 | 56 | 1014.1 |
| 20260508120003 | 67 | 186 | 5.2 | 6.1 | 0.00 | 0.00 | 0.00 | 56 | 1014.2 |
| 20260508115508 | 67 | 226 | 6.1 | 9.6 | 0.00 | 0.00 | 0.00 | 56 | 1014.2 |
| 20260508115003 | 67 | 246 | 6.1 | 9.6 | 0.00 | 0.00 | 0.00 | 56 | 1014.4 |
| 20260508114503 | 67 | 195 | 5.2 | 9.6 | 0.00 | 0.00 | 0.00 | 56 | 1014.2 |
| 20260508114024 | 66 | 138 | 4.3 | 7.0 | 0.00 | 0.00 | 0.00 | 56 | 1014.4 |
| 20260508113503 | 66 | 130 | 5.2 | 7.0 | 0.00 | 0.00 | 0.00 | 57 | 1014.4 |
| 20260508113003 | 66 | 170 | 4.3 | 7.0 | 0.00 | 0.00 | 0.00 | 56 | 1014.3 |
| 20260508112503 | 67 | 219 | 5.2 | 8.7 | 0.00 | 0.00 | 0.00 | 57 | 1014.5 |
| 20260508112003 | 67 | 205 | 6.1 | 8.7 | 0.00 | 0.00 | 0.00 | 57 | 1014.6 |
| 20260508111503 | 67 | 218 | 4.3 | 7.0 | 0.00 | 0.00 | 0.00 | 58 | 1014.4 |
| 20260508111003 | 67 | 286 | 2.6 | 5.2 | 0.00 | 0.00 | 0.00 | 58 | 1014.6 |
| 20260508110524 | 67 | 270 | 2.6 | 4.3 | 0.00 | 0.00 | 0.00 | 58 | 1014.6 |
| 20260508110003 | 67 | 181 | 3.5 | 4.3 | 0.00 | 0.00 | 0.00 | 58 | 1014.5 |
| 20260508105503 | 67 | 197 | 3.5 | 7.0 | 0.00 | 0.00 | 0.00 | 58 | 1014.6 |
| 20260508105003 | 67 | 217 | 4.3 | 7.0 | 0.00 | 0.00 | 0.00 | 59 | 1014.7 |
| 20260508104503 | 67 | 208 | 3.5 | 5.2 | 0.00 | 0.00 | 0.00 | 59 | 1014.7 |
| 20260508104024 | 67 | 170 | 4.3 | 7.8 | 0.00 | 0.00 | 0.00 | 60 | 1014.7 |
| 20260508103503 | 66 | 204 | 5.2 | 7.8 | 0.00 | 0.00 | 0.00 | 59 | 1014.7 |
| 20260508103003 | 66 | 211 | 4.3 | 7.8 | 0.00 | 0.00 | 0.00 | 60 | 1014.7 |
| 20260508102524 | 66 | 202 | 5.2 | 7.8 | 0.00 | 0.00 | 0.00 | 60 | 1014.9 |
| 20260508102003 | 66 | 215 | 3.5 | 7.8 | 0.00 | 0.00 | 0.00 | 61 | 1014.8 |
| 20260508101503 | 65 | 59 | 1.7 | 3.5 | 0.00 | 0.00 | 0.00 | 61 | 1014.9 |
| 20260508101003 | 65 | 139 | 3.5 | 7.0 | 0.00 | 0.00 | 0.00 | 60 | 1014.8 |
| 20260508100503 | 65 | 181 | 5.2 | 7.0 | 0.00 | 0.00 | 0.00 | 60 | 1014.8 |
| 20260508100003 | 65 | 203 | 4.3 | 7.0 | 0.00 | 0.00 | 0.00 | 61 | 1014.9 |
| 20260508095503 | 65 | 243 | 3.5 | 5.2 | 0.00 | 0.00 | 0.00 | 61 | 1014.9 |
| 20260508095003 | 65 | 263 | 4.3 | 7.0 | 0.00 | 0.00 | 0.00 | 61 | 1014.8 |
| 20260508094503 | 65 | 221 | 5.2 | 7.0 | 0.00 | 0.00 | 0.00 | 61 | 1014.8 |
| 20260508094003 | 65 | 208 | 5.2 | 7.0 | 0.00 | 0.00 | 0.00 | 61 | 1014.9 |
| 20260508093503 | 65 | 252 | 4.3 | 7.0 | 0.00 | 0.00 | 0.00 | 61 | 1014.8 |
| 20260508093003 | 64 | 261 | 4.3 | 5.2 | 0.00 | 0.00 | 0.00 | 62 | 1014.8 |
| 20260508092524 | 64 | 226 | 5.2 | 7.0 | 0.00 | 0.00 | 0.00 | 61 | 1014.9 |
| 20260508092003 | 64 | 197 | 6.1 | 7.0 | 0.00 | 0.00 | 0.00 | 61 | 1014.8 |
| 20260508091503 | 64 | 173 | 6.1 | 7.0 | 0.00 | 0.00 | 0.00 | 62 | 1014.8 |
| 20260508091024 | 64 | 116 | 6.1 | 7.0 | 0.00 | 0.00 | 0.00 | 62 | 1014.8 |
| 20260508090503 | 63 | 96 | 5.2 | 6.1 | 0.00 | 0.00 | 0.00 | 65 | 1014.9 |
| 20260508090024 | 63 | 127 | 5.2 | 7.0 | 0.00 | 0.00 | 0.00 | 65 | 1014.7 |
| 20260508085503 | 63 | 133 | 6.1 | 7.0 | 0.00 | 0.00 | 0.00 | 65 | 1014.9 |
| 20260508085003 | 62 | 152 | 5.2 | 7.0 | 0.00 | 0.00 | 0.00 | 65 | 1014.9 |
| 20260508084503 | 62 | 177 | 5.2 | 7.0 | 0.00 | 0.00 | 0.00 | 65 | 1014.8 |
| 20260508084003 | 62 | 195 | 4.3 | 7.0 | 0.00 | 0.00 | 0.00 | 66 | 1014.8 |
| 20260508083503 | 62 | 179 | 4.3 | 7.0 | 0.00 | 0.00 | 0.00 | 66 | 1014.7 |
| 20260508083003 | 62 | 184 | 6.1 | 7.8 | 0.00 | 0.00 | 0.00 | 66 | 1014.8 |
| 20260508082503 | 62 | 217 | 6.1 | 7.8 | 0.00 | 0.00 | 0.00 | 66 | 1014.8 |
| 20260508082003 | 62 | 219 | 5.2 | 7.0 | 0.00 | 0.00 | 0.00 | 67 | 1014.6 |
| 20260508081503 | 62 | 206 | 5.2 | 7.0 | 0.00 | 0.00 | 0.00 | 67 | 1014.8 |
| 20260508081003 | 63 | 219 | 3.5 | 7.0 | 0.00 | 0.00 | 0.00 | 68 | 1014.7 |
| 20260508080503 | 63 | 281 | 1.7 | 2.6 | 0.00 | 0.00 | 0.00 | 69 | 1014.6 |
| 20260508080024 | 63 | 317 | 1.7 | 3.5 | 0.00 | 0.00 | 0.00 | 69 | 1014.8 |
| 20260508075503 | 62 | 219 | 1.7 | 3.5 | 0.00 | 0.00 | 0.00 | 69 | 1014.6 |
| 20260508075024 | 62 | 252 | 2.6 | 3.5 | 0.00 | 0.00 | 0.00 | 69 | 1014.6 |
| 20260508074524 | 62 | 289 | 1.7 | 3.5 | 0.00 | 0.00 | 0.00 | 70 | 1014.6 |
| 20260508074003 | 63 | 330 | 0.9 | 2.6 | 0.00 | 0.00 | 0.00 | 70 | 1014.5 |
| 20260508073503 | 62 | 350 | 1.7 | 2.6 | 0.00 | 0.00 | 0.00 | 70 | 1014.4 |
| 20260508073003 | 62 | 1 | 1.7 | 2.6 | 0.00 | 0.00 | 0.00 | 71 | 1014.5 |
| 20260508072503 | 62 | 352 | 1.7 | 1.7 | 0.00 | 0.00 | 0.00 | 72 | 1014.4 |
| 20260508072003 | 61 | 333 | 1.7 | 2.6 | 0.00 | 0.00 | 0.00 | 72 | 1014.4 |
| 20260508071503 | 60 | 340 | 1.7 | 2.6 | 0.00 | 0.00 | 0.00 | 72 | 1014.4 |
| 20260508071024 | 60 | 356 | 2.6 | 2.6 | 0.00 | 0.00 | 0.00 | 72 | 1014.4 |
| 20260508070503 | 60 | 358 | 1.7 | 2.6 | 0.00 | 0.00 | 0.00 | 74 | 1014.4 |
| 20260508070003 | 59 | 330 | 0.9 | 2.6 | 0.00 | 0.00 | 0.00 | 74 | 1014.3 |
| 20260508065503 | 59 | 326 | 1.7 | 3.5 | 0.00 | 0.00 | 0.00 | 74 | 1014.2 |
| 20260508065003 | 58 | 322 | 0.9 | 3.5 | 0.00 | 0.00 | 0.00 | 75 | 1014.1 |
| 20260508064503 | 58 | 336 | 0.9 | 3.5 | 0.00 | 0.00 | 0.00 | 75 | 1014.2 |
| 20260508064003 | 57 | 341 | 0.0 | 1.7 | 0.00 | 0.00 | 0.00 | 76 | 1014.1 |
| 20260508063524 | 57 | 360 | 0.0 | 1.7 | 0.00 | 0.00 | 0.00 | 76 | 1014.1 |
| 20260508063003 | 56 | 3 | 0.9 | 1.7 | 0.00 | 0.00 | 0.00 | 75 | 1014.1 |
| 20260508062503 | 56 | 7 | 1.7 | 3.5 | 0.00 | 0.00 | 0.00 | 75 | 1014.0 |
| 20260508062003 | 56 | 15 | 2.6 | 3.5 | 0.00 | 0.00 | 0.00 | 76 | 1014.0 |
| 20260508061503 | 56 | 15 | 2.6 | 3.5 | 0.00 | 0.00 | 0.00 | 76 | 1013.9 |
| 20260508061003 | 56 | 6 | 2.6 | 3.5 | 0.00 | 0.00 | 0.00 | 76 | 1013.9 |
| 20260508060503 | 56 | 6 | 2.6 | 3.5 | 0.00 | 0.00 | 0.00 | 77 | 1013.9 |
| 20260508060003 | 56 | 4 | 2.6 | 3.5 | 0.00 | 0.00 | 0.00 | 77 | 1013.9 |
| 20260508055503 | 55 | 360 | 2.6 | 3.5 | 0.00 | 0.00 | 0.00 | 77 | 1013.8 |
| 20260508055024 | 55 | 5 | 2.6 | 3.5 | 0.00 | 0.00 | 0.00 | 77 | 1013.7 |
| 20260508054503 | 55 | 17 | 2.6 | 4.3 | 0.00 | 0.00 | 0.00 | 77 | 1013.8 |
| 20260508054003 | 55 | 11 | 2.6 | 4.3 | 0.00 | 0.00 | 0.00 | 78 | 1013.7 |
| 20260508053503 | 55 | 9 | 3.5 | 5.2 | 0.00 | 0.00 | 0.00 | 78 | 1013.6 |
| 20260508053003 | 55 | 14 | 4.3 | 5.2 | 0.00 | 0.00 | 0.00 | 78 | 1013.6 |
| 20260508052503 | 55 | 9 | 3.5 | 5.2 | 0.00 | 0.00 | 0.00 | 78 | 1013.6 |
| 20260508052024 | 55 | 5 | 3.5 | 4.3 | 0.00 | 0.00 | 0.00 | 78 | 1013.5 |
| 20260508051503 | 55 | 356 | 4.3 | 4.3 | 0.00 | 0.00 | 0.00 | 78 | 1013.4 |
| 20260508051003 | 54 | 332 | 3.5 | 4.3 | 0.00 | 0.00 | 0.00 | 80 | 1013.4 |
| 20260508050524 | 54 | 343 | 3.5 | 4.3 | 0.00 | 0.00 | 0.00 | 80 | 1013.2 |
| 20260508050003 | 54 | 6 | 4.3 | 4.3 | 0.00 | 0.00 | 0.00 | 80 | 1013.2 |
| 20260508045503 | 53 | 3 | 4.3 | 4.3 | 0.00 | 0.00 | 0.00 | 80 | 1013.3 |
| 20260508045018 | 53 | 2 | 3.5 | 4.3 | 0.00 | 0.00 | 0.00 | 80 | 1013.2 |
| 20260508044503 | 53 | 10 | 4.3 | 5.2 | 0.00 | 0.00 | 0.00 | 80 | 1013.2 |
| 20260508044003 | 53 | 16 | 4.3 | 5.2 | 0.00 | 0.00 | 0.00 | 80 | 1013.2 |
| 20260508043503 | 53 | 14 | 4.3 | 5.2 | 0.00 | 0.00 | 0.00 | 79 | 1013.1 |
| 20260508043003 | 52 | 8 | 4.3 | 5.2 | 0.00 | 0.00 | 0.00 | 79 | 1013.2 |
| 20260508042503 | 52 | 5 | 1.7 | 4.3 | 0.00 | 0.00 | 0.00 | 78 | 1013.2 |
| 20260508042003 | 53 | 7 | 0.9 | 1.7 | 0.00 | 0.00 | 0.00 | 78 | 1013.0 |
| 20260508041504 | 53 | 7 | 1.7 | 2.6 | 0.00 | 0.00 | 0.00 | 78 | 1013.1 |
| 20260508041024 | 53 | 12 | 0.9 | 2.6 | 0.00 | 0.00 | 0.00 | 78 | 1013.0 |
| 20260508040503 | 53 | 20 | 0.9 | 1.7 | 0.00 | 0.00 | 0.00 | 77 | 1013.0 |
| 20260508040003 | 53 | 15 | 1.7 | 2.6 | 0.00 | 0.00 | 0.00 | 77 | 1013.0 |
| 20260508035524 | 53 | 11 | 2.6 | 2.6 | 0.00 | 0.00 | 0.00 | 77 | 1013.0 |
| 20260508035003 | 53 | 11 | 1.7 | 3.5 | 0.00 | 0.00 | 0.00 | 77 | 1012.9 |
| 20260508034503 | 53 | 20 | 0.9 | 3.5 | 0.00 | 0.00 | 0.00 | 77 | 1013.0 |
| 20260508034003 | 53 | 46 | 0.0 | 1.7 | 0.00 | 0.00 | 0.00 | 77 | 1013.0 |
| 20260508033524 | 53 | 0 | 0.0 | 0.0 | 0.00 | 0.00 | 0.00 | 77 | 1013.0 |
| 20260508033003 | 54 | 12 | 0.9 | 2.6 | 0.00 | 0.00 | 0.00 | 77 | 1013.1 |
| 20260508032503 | 54 | 14 | 1.7 | 2.6 | 0.00 | 0.00 | 0.00 | 78 | 1013.1 |
| 20260508032003 | 53 | 23 | 0.9 | 2.6 | 0.00 | 0.00 | 0.00 | 78 | 1012.9 |
| 20260508031524 | 53 | 54 | 0.9 | 4.3 | 0.00 | 0.00 | 0.00 | 78 | 1013.0 |
| 20260508031024 | 53 | 43 | 2.6 | 4.3 | 0.00 | 0.00 | 0.00 | 78 | 1012.9 |
| 20260508030503 | 53 | 43 | 3.5 | 7.8 | 0.00 | 0.00 | 0.00 | 79 | 1012.8 |
| 20260508030003 | 53 | 47 | 6.1 | 7.8 | 0.00 | 0.00 | 0.00 | 79 | 1012.7 |
| 20260508025503 | 53 | 47 | 6.1 | 7.8 | 0.00 | 0.00 | 0.00 | 79 | 1012.9 |
| 20260508025003 | 53 | 47 | 4.3 | 7.0 | 0.00 | 0.00 | 0.00 | 78 | 1012.7 |
| 20260508024524 | 53 | 54 | 4.3 | 5.2 | 0.00 | 0.00 | 0.00 | 78 | 1012.8 |
| 20260508024003 | 53 | 49 | 5.2 | 6.1 | 0.00 | 0.00 | 0.00 | 78 | 1012.8 |
| 20260508023503 | 53 | 46 | 4.3 | 6.1 | 0.00 | 0.00 | 0.00 | 78 | 1012.8 |
| 20260508023003 | 53 | 38 | 4.3 | 6.1 | 0.00 | 0.00 | 0.00 | 78 | 1012.8 |
| 20260508022503 | 53 | 17 | 5.2 | 6.1 | 0.00 | 0.00 | 0.00 | 78 | 1012.5 |
| 20260508022024 | 53 | 15 | 4.3 | 6.1 | 0.00 | 0.00 | 0.00 | 78 | 1012.5 |
| 20260508021524 | 53 | 13 | 3.5 | 5.2 | 0.00 | 0.00 | 0.00 | 78 | 1012.4 |
| 20260508021003 | 53 | 16 | 2.6 | 3.5 | 0.00 | 0.00 | 0.00 | 78 | 1012.8 |
| 20260508020503 | 53 | 19 | 2.6 | 3.5 | 0.00 | 0.01 | 0.00 | 78 | 1012.5 |
| 20260508020003 | 53 | 13 | 2.6 | 3.5 | 0.00 | 0.01 | 0.00 | 78 | 1012.5 |
| 20260508015503 | 53 | 6 | 3.5 | 3.5 | 0.00 | 0.01 | 0.00 | 78 | 1012.8 |
| 20260508015003 | 53 | 11 | 3.5 | 3.5 | 0.00 | 0.01 | 0.00 | 78 | 1012.7 |
| 20260508014503 | 53 | 15 | 3.5 | 4.3 | 0.00 | 0.01 | 0.00 | 78 | 1012.8 |
| 20260508014003 | 53 | 7 | 3.5 | 4.3 | 0.00 | 0.01 | 0.00 | 78 | 1012.7 |
| 20260508013524 | 53 | 1 | 3.5 | 4.3 | 0.00 | 0.01 | 0.00 | 78 | 1012.3 |
| 20260508013003 | 53 | 5 | 4.3 | 4.3 | 0.00 | 0.01 | 0.00 | 78 | 1012.5 |
| 20260508012524 | 53 | 13 | 3.5 | 5.2 | 0.00 | 0.01 | 0.00 | 78 | 1012.5 |
| 20260508012024 | 53 | 14 | 4.3 | 5.2 | 0.00 | 0.01 | 0.00 | 78 | 1012.4 |
| 20260508011503 | 53 | 4 | 5.2 | 5.2 | 0.00 | 0.01 | 0.00 | 78 | 1012.5 |
| 20260508011003 | 53 | 2 | 4.3 | 6.1 | 0.00 | 0.01 | 0.00 | 77 | 1012.4 |
| 20260508010503 | 53 | 9 | 4.3 | 6.1 | 0.00 | 0.01 | 0.00 | 77 | 1012.5 |
| 20260508010003 | 53 | 10 | 3.5 | 5.2 | 0.00 | 0.01 | 0.00 | 77 | 1012.5 |
| 20260508005503 | 53 | 8 | 3.5 | 3.5 | 0.00 | 0.01 | 0.00 | 77 | 1012.7 |
| 20260508005024 | 53 | 9 | 3.5 | 4.3 | 0.00 | 0.01 | 0.00 | 77 | 1012.5 |
| 20260508004524 | 53 | 11 | 3.5 | 4.3 | 0.00 | 0.01 | 0.00 | 76 | 1012.7 |
| 20260508004003 | 53 | 7 | 2.6 | 3.5 | 0.00 | 0.01 | 0.00 | 75 | 1012.8 |
| 20260508003503 | 53 | 4 | 1.7 | 2.6 | 0.00 | 0.01 | 0.00 | 75 | 1012.8 |
| 20260508003003 | 53 | 1 | 1.7 | 2.6 | 0.00 | 0.02 | 0.00 | 75 | 1012.8 |
| 20260508002503 | 54 | 360 | 0.9 | 1.7 | 0.00 | 0.02 | 0.00 | 74 | 1012.8 |
| 20260508002003 | 54 | 5 | 0.9 | 1.7 | 0.00 | 0.02 | 0.00 | 74 | 1012.7 |
| 20260508001503 | 54 | 15 | 0.9 | 1.7 | 0.00 | 0.02 | 0.00 | 74 | 1012.9 |
| 20260508001003 | 54 | 22 | 0.9 | 1.7 | 0.00 | 0.02 | 0.00 | 72 | 1012.9 |
| 20260508000503 | 54 | 21 | 0.9 | 1.7 | 0.00 | 0.02 | 0.00 | 74 | 1012.9 |
| 20260508000024 | 54 | 35 | 0.9 | 3.5 | 0.00 | 0.02 | 0.00 | 74 | 1012.8 |
| 20260507235503 | 54 | 39 | 1.7 | 3.5 | 0.00 | 0.02 | 0.00 | 74 | 1012.7 |
| 20260507235003 | 54 | 37 | 1.7 | 3.5 | 0.00 | 0.02 | 0.00 | 74 | 1012.7 |
| 20260507234503 | 54 | 22 | 0.0 | 2.6 | 0.00 | 0.02 | 0.00 | 73 | 1012.7 |
| 20260507234003 | 54 | 0 | 0.0 | 0.0 | 0.00 | 0.02 | 0.00 | 73 | 1012.5 |
| 20260507233503 | 54 | 0 | 0.0 | 0.0 | 0.00 | 0.02 | 0.00 | 73 | 1012.7 |
| 20260507233003 | 55 | 0 | 0.0 | 0.0 | 0.00 | 0.02 | 0.00 | 70 | 1012.5 |
| 20260507232503 | 55 | 0 | 0.0 | 0.0 | 0.00 | 0.02 | 0.00 | 70 | 1012.8 |
| 20260507232003 | 55 | 22 | 0.0 | 0.9 | 0.00 | 0.02 | 0.00 | 70 | 1012.7 |
| 20260507231525 | 55 | 9 | 0.0 | 0.9 | 0.00 | 0.02 | 0.00 | 70 | 1012.9 |
| 20260507231003 | 55 | 22 | 0.0 | 0.9 | 0.00 | 0.02 | 0.00 | 70 | 1012.9 |
| 20260507230503 | 55 | 22 | 0.0 | 0.9 | 0.00 | 0.02 | 0.00 | 69 | 1012.8 |
| 20260507230024 | 55 | 22 | 0.0 | 0.9 | 0.00 | 0.02 | 0.00 | 68 | 1012.9 |
| 20260507225503 | 55 | 0 | 0.0 | 0.0 | 0.00 | 0.02 | 0.00 | 67 | 1012.9 |
| 20260507225003 | 55 | 0 | 0.0 | 0.0 | 0.00 | 0.02 | 0.00 | 67 | 1012.8 |
| 20260507224504 | 55 | 0 | 0.0 | 0.0 | 0.00 | 0.02 | 0.00 | 67 | 1012.9 |
| 20260507224003 | 56 | 0 | 0.0 | 0.0 | 0.00 | 0.02 | 0.00 | 67 | 1012.9 |
| 20260507223524 | 56 | 0 | 0.0 | 0.0 | 0.00 | 0.02 | 0.00 | 67 | 1013.0 |
| 20260507223003 | 56 | 46 | 0.0 | 1.7 | 0.00 | 0.02 | 0.00 | 66 | 1012.9 |
| 20260507222524 | 56 | 46 | 0.0 | 1.7 | 0.00 | 0.04 | 0.00 | 66 | 1012.9 |
| 20260507222003 | 56 | 0 | 0.0 | 0.0 | 0.00 | 0.04 | 0.00 | 66 | 1012.9 |
| 20260507221524 | 56 | 0 | 0.0 | 0.0 | 0.00 | 0.04 | 0.00 | 67 | 1012.9 |
| 20260507221024 | 56 | 0 | 0.0 | 0.0 | 0.00 | 0.04 | 0.00 | 66 | 1012.7 |
| 20260507220503 | 57 | 85 | 0.0 | 0.9 | 0.00 | 0.04 | 0.00 | 65 | 1012.9 |
| 20260507220004 | 57 | 86 | 0.9 | 1.7 | 0.00 | 0.04 | 0.00 | 65 | 1012.7 |
| 20260507215503 | 57 | 71 | 1.7 | 3.5 | 0.00 | 0.04 | 0.04 | 65 | 1012.7 |
| 20260507215003 | 57 | 65 | 2.6 | 3.5 | 0.00 | 0.04 | 0.04 | 64 | 1012.7 |
| 20260507214503 | 58 | 65 | 2.6 | 3.5 | 0.00 | 0.04 | 0.04 | 64 | 1012.8 |
| 20260507214003 | 58 | 67 | 1.7 | 3.5 | 0.00 | 0.05 | 0.04 | 64 | 1012.5 |
| 20260507213503 | 58 | 67 | 0.9 | 3.5 | 0.00 | 0.05 | 0.04 | 64 | 1012.5 |
| 20260507213003 | 58 | 0 | 0.0 | 0.0 | 0.00 | 0.05 | 0.04 | 64 | 1012.5 |
| 20260507212524 | 58 | 67 | 0.0 | 0.9 | 0.00 | 0.05 | 0.04 | 63 | 1012.7 |
| 20260507212003 | 58 | 67 | 0.0 | 0.9 | 0.00 | 0.05 | 0.04 | 62 | 1012.5 |
| 20260507211503 | 58 | 0 | 0.0 | 0.0 | 0.00 | 0.05 | 0.04 | 62 | 1012.7 |
| 20260507211003 | 59 | 0 | 0.0 | 0.0 | 0.00 | 0.05 | 0.04 | 62 | 1012.5 |
| 20260507210503 | 59 | 0 | 0.0 | 0.0 | 0.00 | 0.05 | 0.04 | 61 | 1012.5 |
| 20260507210003 | 59 | 0 | 0.0 | 0.0 | 0.00 | 0.06 | 0.04 | 61 | 1012.5 |
| 20260507205503 | 59 | 0 | 0.0 | 0.0 | 0.00 | 0.06 | 0.04 | 61 | 1012.4 |
| 20260507205003 | 59 | 0 | 0.0 | 0.0 | 0.00 | 0.06 | 0.04 | 61 | 1012.5 |
| 20260507204503 | 59 | 0 | 0.0 | 0.0 | 0.00 | 0.09 | 0.04 | 60 | 1012.4 |
| 20260507204024 | 59 | 0 | 0.0 | 0.0 | 0.00 | 0.11 | 0.04 | 60 | 1012.5 |
| 20260507203503 | 59 | 0 | 0.0 | 0.0 | 0.00 | 0.11 | 0.04 | 59 | 1012.3 |
| 20260507203003 | 59 | 0 | 0.0 | 0.0 | 0.00 | 0.11 | 0.04 | 58 | 1012.5 |
| 20260507202503 | 59 | 0 | 0.0 | 0.0 | 0.00 | 0.11 | 0.04 | 58 | 1012.3 |
| 20260507202024 | 60 | 0 | 0.0 | 0.0 | 0.00 | 0.11 | 0.04 | 58 | 1012.3 |
| 20260507201503 | 60 | 0 | 0.0 | 0.0 | 0.00 | 0.11 | 0.04 | 58 | 1012.2 |
| 20260507201003 | 60 | 0 | 0.0 | 0.0 | 0.00 | 0.11 | 0.04 | 58 | 1012.1 |
| 20260507200503 | 60 | 0 | 0.0 | 0.0 | 0.00 | 0.11 | 0.04 | 58 | 1012.1 |
| 20260507200024 | 60 | 0 | 0.0 | 0.0 | 0.00 | 0.11 | 0.04 | 58 | 1011.9 |
| 20260507195503 | 60 | 0 | 0.0 | 0.0 | 0.00 | 0.11 | 0.04 | 57 | 1011.9 |
| 20260507195003 | 61 | 0 | 0.0 | 0.0 | 0.00 | 0.11 | 0.04 | 57 | 1011.9 |
| 20260507194503 | 61 | 0 | 0.0 | 0.0 | 0.00 | 0.11 | 0.04 | 57 | 1011.8 |
| 20260507194003 | 61 | 0 | 0.0 | 0.0 | 0.00 | 0.11 | 0.04 | 57 | 1011.7 |
| 20260507193503 | 61 | 0 | 0.0 | 0.0 | 0.00 | 0.11 | 0.04 | 57 | 1011.7 |
| 20260507193003 | 61 | 0 | 0.0 | 0.0 | 0.00 | 0.11 | 0.04 | 57 | 1011.6 |
| 20260507192503 | 61 | 0 | 0.0 | 0.0 | 0.00 | 0.11 | 0.04 | 56 | 1011.4 |
| 20260507192003 | 61 | 0 | 0.0 | 0.0 | 0.00 | 0.11 | 0.04 | 56 | 1011.5 |
| 20260507191503 | 61 | 0 | 0.0 | 0.0 | 0.00 | 0.11 | 0.04 | 56 | 1011.3 |
| 20260507191003 | 61 | 0 | 0.0 | 0.0 | 0.00 | 0.11 | 0.04 | 56 | 1011.2 |
| 20260507190504 | 61 | 0 | 0.0 | 0.0 | 0.00 | 0.11 | 0.04 | 56 | 1011.1 |
| 20260507190004 | 61 | 0 | 0.0 | 0.0 | 0.00 | 0.11 | 0.04 | 56 | 1011.4 |